Arctic Village, AK

10:02 AM AKDT on July 24, 2017 (GMT -0800)
Arctic Village

Weather History for PARC - July, 2013

Change the Weather History Date:

Friday, July 19, 2013

  Actual Average Record
Temperature  
Mean Temperature 58 °F -  
Max Temperature 64 °F 69 °F 78 °F (1992)
Min Temperature 51 °F 48 °F 42 °F (2003)
Degree Days  
Heating Degree Days 8    
Growing Degree Days 8 (Base 50)    
Moisture  
Dew Point 49 °F    
Average Humidity 75    
Maximum Humidity 94    
Minimum Humidity 49    
Precipitation  
Precipitation 0.35 in - - ()
Sea Level Pressure  
Sea Level Pressure 30.02 in    
Wind  
Wind Speed 3 mph (NE)    
Max Wind Speed 12 mph    
Max Gust Speed 17 mph    
Visibility 10 miles    
Events      
Averages and records for this station are not official NWS values.
T = Trace of Precipitation, MM = Missing Value Source: NWS Daily Summary

Daily Weather History Graph

Daily Weather History Graph

Search for Another Location

Airport or City:

Trip Planner

Search our weather history database for the weather conditions in past years. The results will help you decide how hot, cold, wet, or windy it might be!

Date:

Astronomy

Jul. 19, 2013 Rise Set
Actual Time 2:26 AM AKDT 12:59 AM AKDT
Civil Twilight Sun does not set Sun does not set
Nautical Twilight Sun does not set Sun does not set
Astronomical Twilight Sun does not set Sun does not set
Moon 9:41 PM AKDT (7/19) 12:08 AM AKDT (7/19)
Length of Visible Light 24h 00m
Length of Day
22h 33m
Waxing Gibbous, 88% of the Moon is Illuminated
Jul 19
Waxing Gibbous
Jul 22
Full
Jul 29
Last Quarter
Aug 6
New
Aug 14
First Quarter

Hourly Weather History & Observations

Time (AKDT) Temp. Dew Point Humidity Pressure Visibility Wind Dir Wind Speed Gust Speed Precip Events Conditions
12:16 AM 53.6 °F 51.8 °F 94% 30.04 in 10.0 mi Calm Calm - N/A   Overcast
12:36 AM 53.6 °F 50.0 °F 88% 30.04 in 10.0 mi Calm Calm - N/A   Overcast
12:56 AM 53.6 °F 51.8 °F 94% 30.04 in 10.0 mi NW 3.5 mph - N/A   Overcast
1:16 AM 53.6 °F 51.8 °F 94% 30.04 in 10.0 mi West 3.5 mph - N/A   Overcast
1:36 AM 55.4 °F 50.0 °F 82% 30.04 in 10.0 mi Calm Calm - N/A   Overcast
1:56 AM 53.6 °F 51.8 °F 94% 30.04 in 10.0 mi Calm Calm - N/A   Overcast
2:16 AM 51.8 °F 50.0 °F 94% 30.03 in 10.0 mi Calm Calm - N/A   Overcast
2:36 AM 53.6 °F 51.8 °F 94% 30.04 in 10.0 mi ESE 4.6 mph - N/A   Scattered Clouds
2:56 AM 53.6 °F 51.8 °F 94% 30.04 in 10.0 mi Calm Calm - N/A   Partly Cloudy
3:16 AM 51.8 °F 48.2 °F 88% 30.04 in 10.0 mi Calm Calm - N/A   Scattered Clouds
3:36 AM 51.8 °F 50.0 °F 94% 30.03 in 10.0 mi Calm Calm - N/A   Mostly Cloudy
3:56 AM 51.8 °F 48.2 °F 88% 30.03 in 10.0 mi Calm Calm - N/A   Overcast
4:16 AM 51.8 °F 48.2 °F 88% 30.04 in 10.0 mi Calm Calm - N/A   Overcast
4:36 AM 51.8 °F 50.0 °F 94% 30.03 in 10.0 mi Calm Calm - N/A   Mostly Cloudy
4:56 AM 51.8 °F 48.2 °F 88% 30.03 in 10.0 mi Calm Calm - N/A   Scattered Clouds
5:16 AM 51.8 °F 48.2 °F 88% 30.03 in 10.0 mi Calm Calm - N/A   Mostly Cloudy
5:36 AM 51.8 °F 48.2 °F 88% 30.03 in 10.0 mi Calm Calm - N/A   Mostly Cloudy
5:56 AM 51.8 °F 48.2 °F 88% 30.03 in 10.0 mi Calm Calm - N/A   Mostly Cloudy
6:16 AM 51.8 °F 48.2 °F 88% 30.03 in 10.0 mi Calm Calm - N/A   Overcast
6:36 AM 53.6 °F 50.0 °F 88% 30.03 in 10.0 mi Calm Calm - N/A   Mostly Cloudy
6:56 AM 53.6 °F 50.0 °F 88% 30.03 in 10.0 mi Calm Calm - N/A   Mostly Cloudy
7:16 AM 53.6 °F 51.8 °F 94% 30.03 in 10.0 mi Calm Calm - N/A   Mostly Cloudy
7:36 AM 55.4 °F 51.8 °F 88% 30.03 in 10.0 mi East 3.5 mph - N/A   Overcast
7:56 AM 55.4 °F 50.0 °F 82% 30.02 in 10.0 mi Calm Calm - N/A   Overcast
8:16 AM 57.2 °F 51.8 °F 82% 30.03 in 10.0 mi NE 4.6 mph - N/A   Overcast
8:36 AM 57.2 °F 51.8 °F 82% 30.03 in 10.0 mi ENE 5.8 mph - N/A   Scattered Clouds
8:56 AM 57.2 °F 51.8 °F 82% 30.03 in 10.0 mi East 3.5 mph - N/A   Clear
9:16 AM 57.2 °F 50.0 °F 77% 30.03 in 10.0 mi Calm Calm - N/A   Scattered Clouds
9:36 AM 59.0 °F 50.0 °F 72% 30.02 in 10.0 mi East 3.5 mph - N/A   Partly Cloudy
9:56 AM 60.8 °F 50.0 °F 68% 30.02 in 10.0 mi Calm Calm - N/A   Clear
10:16 AM 62.6 °F 50.0 °F 63% 30.02 in 10.0 mi East 5.8 mph - N/A   Partly Cloudy
10:36 AM 60.8 °F 48.2 °F 63% 30.02 in 10.0 mi ESE 4.6 mph - N/A   Mostly Cloudy
10:56 AM 60.8 °F 48.2 °F 63% 30.02 in 10.0 mi Calm Calm - N/A   Mostly Cloudy
11:16 AM 60.8 °F 48.2 °F 63% 30.02 in 10.0 mi Calm Calm - N/A   Mostly Cloudy
11:36 AM 60.8 °F 48.2 °F 63% 30.02 in 10.0 mi SW 3.5 mph - N/A   Mostly Cloudy
11:56 AM 62.6 °F 48.2 °F 59% 30.01 in 10.0 mi West 6.9 mph - N/A   Overcast
12:16 PM 62.6 °F 48.2 °F 59% 30.01 in 10.0 mi WSW 5.8 mph - N/A   Overcast
12:36 PM 62.6 °F 46.4 °F 55% 30.01 in 10.0 mi West 5.8 mph - N/A   Mostly Cloudy
12:56 PM 64.4 °F 48.2 °F 56% 30.01 in 10.0 mi WSW 8.1 mph - N/A   Scattered Clouds
1:16 PM 64.4 °F 46.4 °F 52% 30.00 in 10.0 mi WSW 5.8 mph - N/A   Mostly Cloudy
1:36 PM 64.4 °F 46.4 °F 52% 30.00 in 10.0 mi WNW 10.4 mph - N/A   Mostly Cloudy
1:56 PM 64.4 °F 44.6 °F 49% 30.00 in 10.0 mi NW 9.2 mph - N/A   Overcast
2:16 PM 64.4 °F 48.2 °F 56% 30.00 in 10.0 mi NNW 6.9 mph - N/A   Mostly Cloudy
2:36 PM 64.4 °F 48.2 °F 56% 30.00 in 10.0 mi NNW 9.2 mph - N/A   Scattered Clouds
2:56 PM 64.4 °F 46.4 °F 52% 30.00 in 10.0 mi NNW 11.5 mph - N/A   Mostly Cloudy
3:16 PM 60.8 °F 48.2 °F 63% 30.00 in 7.0 mi West 11.5 mph - 0.03 in   Overcast
3:36 PM 57.2 °F 48.2 °F 72% 30.02 in 5.0 mi West 10.4 mph 17.3 mph 0.20 in   Overcast
3:56 PM 55.4 °F 48.2 °F 77% 30.01 in 9.0 mi SSW 8.1 mph - 0.25 in   Mostly Cloudy
4:16 PM 57.2 °F 48.2 °F 72% 30.00 in 9.0 mi Calm Calm - 0.02 in   Overcast
4:36 PM 57.2 °F 51.8 °F 82% 30.00 in 10.0 mi Calm Calm - 0.02 in   Mostly Cloudy
4:56 PM 59.0 °F 51.8 °F 77% 30.00 in 10.0 mi East 6.9 mph - 0.02 in   Mostly Cloudy
5:16 PM 59.0 °F 51.8 °F 77% 30.01 in 10.0 mi ENE 5.8 mph - N/A   Scattered Clouds
5:36 PM 60.8 °F 51.8 °F 72% 30.01 in 10.0 mi NNE 4.6 mph - N/A   Clear
5:56 PM 60.8 °F 50.0 °F 68% 30.01 in 10.0 mi East 6.9 mph - N/A   Clear
6:16 PM 62.6 °F 51.8 °F 68% 30.00 in 10.0 mi ENE 6.9 mph - N/A   Partly Cloudy
6:36 PM 62.6 °F 50.0 °F 63% 30.00 in 10.0 mi East 6.9 mph - N/A   Clear
6:56 PM 60.8 °F 48.2 °F 63% 30.00 in 10.0 mi NE 4.6 mph - N/A   Clear
7:16 PM 62.6 °F 48.2 °F 59% 30.00 in 10.0 mi East 3.5 mph - N/A   Clear
7:36 PM 60.8 °F 48.2 °F 63% 30.00 in 10.0 mi NNE 4.6 mph - N/A   Scattered Clouds
7:56 PM 60.8 °F 50.0 °F 68% 30.00 in 10.0 mi NNE 4.6 mph - N/A   Mostly Cloudy
8:16 PM 60.8 °F 51.8 °F 72% 29.99 in 10.0 mi NNW 4.6 mph - N/A   Overcast
8:36 PM 60.8 °F 51.8 °F 72% 29.99 in 10.0 mi NE 6.9 mph - N/A   Overcast
8:56 PM 59.0 °F 50.0 °F 72% 29.99 in 10.0 mi ENE 8.1 mph - N/A   Overcast
9:16 PM 59.0 °F 48.2 °F 67% 29.99 in 10.0 mi ESE 10.4 mph - N/A   Overcast
9:36 PM 59.0 °F 48.2 °F 67% 29.99 in 10.0 mi East 9.2 mph - N/A   Overcast
9:56 PM 59.0 °F 48.2 °F 67% 30.00 in 10.0 mi ESE 4.6 mph - N/A   Overcast
10:16 PM 59.0 °F 46.4 °F 63% 30.00 in 10.0 mi Calm Calm - N/A   Overcast
10:36 PM 57.2 °F 48.2 °F 72% 30.01 in 8.0 mi WSW 10.4 mph - 0.02 in   Overcast
10:56 PM 55.4 °F 50.0 °F 82% 30.01 in 6.0 mi East 4.6 mph - 0.08 in   Overcast
11:16 PM 55.4 °F 51.8 °F 88% 30.01 in 10.0 mi WNW 4.6 mph - N/A   Overcast
11:36 PM 55.4 °F 50.0 °F 82% 30.01 in 10.0 mi West 6.9 mph - N/A   Overcast
11:56 PM 53.6 °F 50.0 °F 88% 30.01 in 10.0 mi WSW 8.1 mph - N/A   Overcast